�N����,����,����,����,����,�C��,���x,�~����,�S�V����,�ő�u�ԕ���,,,,,
,,,,,,,,,����,����,����,�N��,,
yyyy/mm/dd,hh:mm:ss,(16),16����,m/s,��,%,mm,KW/�u,(16),16����,m/s,Time,,
2019/7/1,1:00:00,3,���k��,1.4,12.5,94.2,0,0,2,�k��,2.1,58,,
2019/7/1,2:00:00,3,���k��,0.6,12.4,94.3,0,0,1,�k�k��,2.3,35,,
2019/7/1,3:00:00,3,���k��,1.8,12.4,94.6,0,0,3,���k��,3.1,55,,
2019/7/1,4:00:00,2,�k��,1.6,12.1,94.5,0,0,3,���k��,3.4,22,,
2019/7/1,5:00:00,3,���k��,2,12.2,95,0,0.02,3,���k��,3,28,,
2019/7/1,6:00:00,3,���k��,2,12.4,95,0,0.05,3,���k��,3.7,30,,
2019/7/1,7:00:00,3,���k��,1.6,12.7,94.7,0,0.07,3,���k��,3.5,23,,
2019/7/1,8:00:00,3,���k��,2.4,12.9,92.4,0,0.1,3,���k��,4.2,46,,
2019/7/1,9:00:00,4,��,2.7,13.8,90,0,0.2,4,��,4.5,49,,
2019/7/1,10:00:00,4,��,2.6,13.2,87.6,0.5,0.23,5,���쓌,4.4,10,,
2019/7/1,11:00:00,3,���k��,3,14.3,90.8,0,0.33,4,��,4.6,6,,
2019/7/1,12:00:00,5,���쓌,2.9,15.3,82.8,0,0.43,3,���k��,4.2,0,,
2019/7/1,13:00:00,4,��,3.1,14.3,79.4,0,0.47,5,���쓌,5.1,16,,
2019/7/1,14:00:00,4,��,2.4,13.7,80.6,0.5,0.35,5,���쓌,4.1,31,,
2019/7/1,15:00:00,5,���쓌,1.2,13.7,85.5,0,0.19,4,��,3.2,34,,
2019/7/1,16:00:00,5,���쓌,2.5,13.9,82.5,0,0.16,4,��,3.6,55,,
2019/7/1,17:00:00,4,��,2.4,13.4,83,0,0.17,5,���쓌,3.8,10,,
2019/7/1,18:00:00,3,���k��,1.5,12.6,88.5,0,0.05,4,��,3.3,27,,
2019/7/1,19:00:00,4,��,1.7,12.5,92,0,0.01,2,�k��,2.9,26,,
2019/7/1,20:00:00,2,�k��,1.4,12.4,94.2,0,0,1,�k�k��,3,15,,
2019/7/1,21:00:00,2,�k��,1,12.6,95,0,0,1,�k�k��,2.2,1,,
2019/7/1,22:00:00,12.6,��,95.5,0,0,,,,,,,,
2019/7/1,23:00:00,15,�k�k��,0.3,12.6,95.6,0,0,1,�k�k��,1.7,20,,
2019/7/1,0:00:00,14,�k��,0.7,12.7,95.9,0,0,13,���k��,1.3,52,,
2019/7/2,1:00:00,1,�k�k��,0.9,12.7,95.8,0,0,2,�k��,2.5,49,,
2019/7/2,2:00:00,14,�k��,0.7,12.9,95.9,0,0,1,�k�k��,1.8,44,,
2019/7/2,3:00:00,16,�É�,0.2,13,96,0,0,14,�k��,1.3,8,,
2019/7/2,4:00:00,16,�É�,0,13.1,95.9,0,0,13,���k��,2,31,,
2019/7/2,5:00:00,16,�É�,0,13.9,96.5,0,0.05,9,��쐼,1.9,14,,
2019/7/2,6:00:00,1,�k�k��,0.7,14.7,95.8,0,0.1,14,�k��,1.5,51,,
2019/7/2,7:00:00,5,���쓌,1.5,14.4,85.8,0,0.16,5,���쓌,2.3,51,,
2019/7/2,8:00:00,6,�쓌,2.3,14.2,84.9,0,0.16,6,�쓌,2.6,57,,
2019/7/2,9:00:00,6,�쓌,0.7,14.4,88.9,0,0.15,7,��쓌,2.8,13,,
2019/7/2,10:00:00,7,��쓌,1,14.3,85.7,0,0.22,7,��쓌,2.7,39,,
2019/7/2,11:00:00,8,��,1,14.6,87.4,1,0.18,6,�쓌,2.1,12,,
2019/7/2,12:00:00,5,���쓌,2.8,16.2,76.9,0,0.57,6,�쓌,5.5,59,,
2019/7/2,13:00:00,4,��,1.7,16.2,75.1,0,0.49,6,�쓌,4.2,3,,
2019/7/2,14:00:00,5,���쓌,1.5,16.6,73.2,0,0.38,5,���쓌,3.5,54,,
2019/7/2,15:00:00,5,���쓌,2.3,16,76.8,0,0.29,5,���쓌,3.1,4,,
2019/7/2,16:00:00,6,�쓌,1.6,15.5,79.8,0,0.27,6,�쓌,3.3,14,,
2019/7/2,17:00:00,7,��쓌,1.5,15,83,0,0.21,6,�쓌,3.1,9,,
2019/7/2,18:00:00,5,���쓌,0.9,14.2,87.1,0,0.07,5,���쓌,2.3,28,,
2019/7/2,19:00:00,6,�쓌,1.2,13.6,90.9,0,0.02,6,�쓌,2.6,48,,
2019/7/2,20:00:00,2,�k��,1.1,13.8,93.2,0,0,1,�k�k��,2.1,51,,
2019/7/2,21:00:00,6,�쓌,0.7,13.9,94.4,0,0,2,�k��,1.5,27,,
2019/7/2,22:00:00,14,�k��,95.1,0,0,,,,,,,,
2019/7/2,23:00:00,12,��,1,14.2,95.4,0,0,12,��,2.5,43,,
2019/7/2,0:00:00,16,�É�,0.2,14.1,95.6,0,0,6,�쓌,1.8,48,,
2019/7/3,1:00:00,8,��,0.7,14.3,95.8,0,0,8,��,1.2,56,,
2019/7/3,2:00:00,11,���쐼,1.4,14.6,96,0,0,11,���쐼,2.1,55,,
2019/7/3,3:00:00,12,��,0.9,13.9,96,0,0,12,��,2.6,17,,
2019/7/3,4:00:00,10,�쐼,1.3,14.1,96.2,0,0,10,�쐼,2.2,49,,
2019/7/3,5:00:00,11,���쐼,1.3,14,96.5,0,0.03,11,���쐼,2.8,12,,
2019/7/3,6:00:00,14,�k��,0.5,15.8,96.2,0,0.21,13,���k��,2.5,32,,
2019/7/3,7:00:00,5,���쓌,1.6,18,67.2,0,0.43,5,���쓌,2.8,57,,
2019/7/3,8:00:00,4,��,1.5,20.1,66.2,0,0.61,5,���쓌,3.5,49,,
2019/7/3,9:00:00,6,�쓌,2.8,21.9,59.9,0,0.78,5,���쓌,3.9,54,,
2019/7/3,10:00:00,5,���쓌,2.4,21,65.6,0,0.92,6,�쓌,4.8,54,,
2019/7/3,11:00:00,6,�쓌,2.8,20.3,66.9,0,1.02,6,�쓌,4.6,12,,
2019/7/3,12:00:00,6,�쓌,2.4,20.7,67.2,0,1.05,6,�쓌,5,41,,
2019/7/3,13:00:00,6,�쓌,2.7,20.3,63.8,0,1.02,5,���쓌,4.8,28,,
2019/7/3,14:00:00,6,�쓌,2.6,20.6,67.5,0,0.95,5,���쓌,4.8,44,,
2019/7/3,15:00:00,5,���쓌,3.3,17.8,67.7,0,0.8,6,�쓌,5,2,,
2019/7/3,16:00:00,4,��,3.3,15.6,77.9,0,0.48,4,��,5.2,47,,
2019/7/3,17:00:00,3,���k��,3,15.1,87.4,0,0.2,3,���k��,4.9,29,,
2019/7/3,18:00:00,3,���k��,3.5,14.3,90.7,0,0.09,3,���k��,5.3,58,,
2019/7/3,19:00:00,2,�k��,2.1,13.8,94.1,0,0.02,3,���k��,6.5,15,,
2019/7/3,20:00:00,1,�k�k��,1.9,14,95.6,0,0,2,�k��,4.4,2,,
2019/7/3,21:00:00,14,�k��,0.5,14.3,96.2,0,0,15,�k�k��,2.2,3,,
2019/7/3,22:00:00,4,��,3,13.9,96,0,0,4,��,4.4,56,,
2019/7/3,23:00:00,3,���k��,2.1,13.1,94.4,0,0,4,��,5,9,,
2019/7/3,0:00:00,2,�k��,1.1,12.8,94.9,0,0,1,�k�k��,3.5,41,,
2019/7/4,1:00:00,1,�k�k��,1.3,12.8,95.4,0,0,1,�k�k��,2.2,44,,
2019/7/4,2:00:00,16,�k,0.6,13.1,95.8,0,0,1,�k�k��,1.8,6,,
2019/7/4,3:00:00,15,�k�k��,0.7,13.4,96.1,0,0,14,�k��,1.6,33,,
2019/7/4,4:00:00,16,�k,1,13.6,96.2,0,0,15,�k�k��,2.3,54,,
2019/7/4,5:00:00,14,�k��,0.8,13.8,96.2,0,0.02,16,�k,1.9,45,,
2019/7/4,6:00:00,2,�k��,2.1,13.9,95,0,0.04,2,�k��,4.1,56,,
2019/7/4,7:00:00,3,���k��,2.9,14.3,94.4,0,0.11,3,���k��,4.7,31,,
2019/7/4,8:00:00,2,�k��,2.3,14.7,93.3,0,0.12,3,���k��,4.6,59,,
2019/7/4,9:00:00,2,�k��,2.2,14.7,92.5,0,0.14,3,���k��,5.1,0,,
2019/7/4,10:00:00,3,���k��,3.3,14.4,90.6,0,0.15,3,���k��,5,39,,
2019/7/4,11:00:00,3,���k��,1.5,15,90.2,0,0.15,3,���k��,4.9,0,,
2019/7/4,12:00:00,4,��,2.5,14.7,86.9,0,0.19,4,��,4.1,31,,
2019/7/4,13:00:00,3,���k��,3.1,14.4,88.2,0,0.15,4,��,4.4,54,,
2019/7/4,14:00:00,3,���k��,2,14.7,90.5,0,0.11,3,���k��,4.4,10,,
2019/7/4,15:00:00,3,���k��,1.9,14.1,91.6,0.5,0.12,3,���k��,4.1,37,,
2019/7/4,16:00:00,3,���k��,1.2,14,91.4,1,0.11,4,��,2.9,13,,
2019/7/4,17:00:00,3,���k��,1.3,13.9,92.1,0.5,0.09,3,���k��,2.6,22,,
2019/7/4,18:00:00,3,���k��,0.6,13.6,91.8,0,0.05,4,��,2.2,30,,
2019/7/4,19:00:00,4,��,0.5,13.4,91.7,0,0.02,5,���쓌,1.6,42,,
2019/7/4,20:00:00,16,�É�,0,13,93.4,0,0,4,��,1.1,27,,
2019/7/4,21:00:00,16,�É�,0.1,13.2,95.2,0,0,12,��,0.9,19,,
2019/7/4,22:00:00,16,�É�,0.2,13.5,95.7,0,0,13,���k��,1.2,30,,
2019/7/4,23:00:00,14,�k��,0.5,13.5,95.8,0,0,2,�k��,1.2,43,,
2019/7/4,0:00:00,13,���k��,0.5,13.6,95.8,0,0,14,�k��,1,54,,
2019/7/5,1:00:00,11,���쐼,0.8,13.6,95.5,0,0,11,���쐼,1.6,44,,
2019/7/5,2:00:00,16,�É�,0.1,13.6,95.7,0,0,9,��쐼,2.1,29,,
2019/7/5,3:00:00,13.6,���k��,95.9,0,0,,,,,,,,
2019/7/5,4:00:00,7,��쓌,0.3,13.4,95.3,0,0,7,��쓌,1.6,30,,
2019/7/5,5:00:00,9,��쐼,1.2,13.6,94.9,0,0.03,8,��,2.3,49,,
2019/7/5,6:00:00,8,��,0.8,13.4,93,0,0.04,4,��,2.3,25,,
2019/7/5,7:00:00,9,��쐼,0.9,14,91.9,0,0.11,8,��,2.5,13,,
2019/7/5,8:00:00,5,���쓌,1.5,14.2,85.1,0,0.16,7,��쓌,2.4,33,,
2019/7/5,9:00:00,6,�쓌,0.7,14.9,86,0,0.2,4,��,2.6,5,,
2019/7/5,10:00:00,5,���쓌,1.7,14.5,86.2,1.5,0.22,4,��,3.4,29,,
2019/7/5,11:00:00,6,�쓌,2.6,15.3,83.2,0,0.48,6,�쓌,4.3,54,,
2019/7/5,12:00:00,6,�쓌,2.6,14.1,82.4,0,0.35,5,���쓌,4.3,57,,
2019/7/5,13:00:00,7,��쓌,2.3,14.6,81.4,0,0.37,6,�쓌,4.7,47,,
2019/7/5,14:00:00,7,��쓌,2.3,14.7,82.9,0,0.28,6,�쓌,4.4,41,,
2019/7/5,15:00:00,6,�쓌,2.7,13.9,83.9,0,0.27,7,��쓌,4.4,8,,
2019/7/5,16:00:00,5,���쓌,1.9,13.7,86.3,0,0.19,5,���쓌,3.4,48,,
2019/7/5,17:00:00,7,��쓌,1.8,13.6,84.8,0,0.14,7,��쓌,3.1,47,,
2019/7/5,18:00:00,7,��쓌,0.8,12.9,90.1,0,0.05,9,��쐼,3.4,5,,
2019/7/5,19:00:00,1,�k�k��,0.6,13.1,92.8,0,0.01,1,�k�k��,1,49,,
2019/7/5,20:00:00,8,��,1.4,12.8,93.4,0,0,8,��,2,59,,
2019/7/5,21:00:00,5,���쓌,0.5,12.6,94.3,0,0,11,���쐼,1.6,23,,
2019/7/5,22:00:00,16,�É�,0.2,12.9,95,0,0,15,�k�k��,17.9,54,,
2019/7/5,23:00:00,14,�k��,0.7,12.9,95.2,0,0,16,�k,1.4,21,,
2019/7/5,0:00:00,12,��,1.1,12.9,95.3,0,0,11,���쐼,1.9,25,,
2019/7/6,1:00:00,13.2,���k��,95.7,0,0,,,,,,,,
2019/7/6,2:00:00,16,�É�,0,13.2,96.2,0,0,11,���쐼,7.1,36,,
2019/7/6,3:00:00,13,���k��,0.6,13.2,96.4,0,0,13,���k��,8.1,44,,
2019/7/6,4:00:00,14,�k��,0.3,13.1,96.3,0,0,1,�k�k��,1.3,36,,
2019/7/6,5:00:00,13,���k��,0.7,13.6,96.4,0,0.02,12,��,2.2,37,,
2019/7/6,6:00:00,3,���k��,0.3,14,96.3,0,0.05,12,��,1.1,6,,
2019/7/6,7:00:00,16,�É�,0.2,14.6,93.6,0,0.11,7,��쓌,1.6,18,,
2019/7/6,8:00:00,5,���쓌,1.7,15.3,78.8,0,0.28,6,�쓌,2.8,59,,
2019/7/6,9:00:00,6,�쓌,2.1,15.7,80.6,0,0.38,8,��,3.5,45,,
2019/7/6,10:00:00,4,��,2.4,18.3,71.1,0,0.56,4,��,3.9,56,,
2019/7/6,11:00:00,5,���쓌,3.7,17,69.1,0,0.76,5,���쓌,5.2,27,,
2019/7/6,12:00:00,6,�쓌,3.6,16.2,75.8,0,0.53,6,�쓌,5.5,50,,
2019/7/6,13:00:00,5,���쓌,2,17.5,73.3,0,0.55,6,�쓌,5.2,3,,
2019/7/6,14:00:00,5,���쓌,2.2,15.8,72.5,0,0.45,5,���쓌,4.3,48,,
2019/7/6,15:00:00,5,���쓌,2,17.2,72.7,0,0.44,4,��,4,50,,
2019/7/6,16:00:00,6,�쓌,1.2,18.3,65.3,0,0.6,6,�쓌,3.1,2,,
2019/7/6,17:00:00,5,���쓌,2,17.4,62.9,0,0.45,5,���쓌,3.1,47,,
2019/7/6,18:00:00,5,���쓌,2.9,15.1,73.6,0,0.24,5,���쓌,4.7,52,,
2019/7/6,19:00:00,4,��,2.4,14.1,87.9,0,0.03,4,��,4.2,17,,
2019/7/6,20:00:00,5,���쓌,0.7,13.9,91.5,0,0,4,��,3.5,10,,
2019/7/6,21:00:00,16,�É�,0,14.1,93.4,0,0,7,��쓌,1.4,13,,
2019/7/6,22:00:00,5,���쓌,1.7,13.6,93.1,0,0,6,�쓌,3.1,28,,
2019/7/6,23:00:00,6,�쓌,1,13.4,93.8,0,0,5,���쓌,2.5,15,,
2019/7/6,0:00:00,5,���쓌,0.3,13.4,94.6,0,0,6,�쓌,1.7,1,,
2019/7/7,1:00:00,16,�É�,0,13.5,95.1,0,0,1,�k�k��,1.3,16,,
2019/7/7,2:00:00,15,�k�k��,0.8,13.6,95.3,0,0,14,�k��,1.6,39,,
2019/7/7,3:00:00,1,�k�k��,0.5,13.6,95.2,0,0,14,�k��,2.2,17,,
2019/7/7,4:00:00,1,�k�k��,0.7,13.7,95.4,0,0,1,�k�k��,1.3,38,,
2019/7/7,5:00:00,16,�É�,0.1,14,95.6,0,0.02,14,�k��,2.3,33,,
2019/7/7,6:00:00,6,�쓌,1.1,14.9,95.1,0,0.08,7,��쓌,1.9,35,,
2019/7/7,7:00:00,6,�쓌,2,15.1,86.4,0,0.16,7,��쓌,2.8,59,,
2019/7/7,8:00:00,4,��,1.1,16.3,84.1,0,0.25,5,���쓌,2.8,48,,
2019/7/7,9:00:00,6,�쓌,1.8,17.6,72.5,0,0.48,6,�쓌,3.3,34,,
2019/7/7,10:00:00,5,���쓌,3,18.3,67.5,0,0.78,4,��,4.5,52,,
2019/7/7,11:00:00,5,���쓌,3,18.9,69.5,0,0.91,6,�쓌,4.7,24,,
2019/7/7,12:00:00,6,�쓌,2.9,19.5,67.5,0,1.05,7,��쓌,5.7,10,,
2019/7/7,13:00:00,6,�쓌,3.4,18.1,64.4,0,1.06,6,�쓌,6.4,14,,
2019/7/7,14:00:00,7,��쓌,3,18.4,69.4,0,0.89,5,���쓌,6.2,1,,
2019/7/7,15:00:00,6,�쓌,2.8,18.6,67.9,0,0.82,7,��쓌,4.9,0,,
2019/7/7,16:00:00,6,�쓌,2.4,18.3,69.3,0,0.65,6,�쓌,4.8,10,,
2019/7/7,17:00:00,6,�쓌,2.2,17.1,73.1,0,0.35,5,���쓌,4.1,18,,
2019/7/7,18:00:00,7,��쓌,1.5,15.4,80.4,0,0.14,6,�쓌,3.2,20,,
2019/7/7,19:00:00,7,��쓌,0.7,14.2,84.6,0,0.04,8,��,2.9,11,,
2019/7/7,20:00:00,16,�É�,0,12.3,88.4,0,0,7,��쓌,1.7,4,,
2019/7/7,21:00:00,16,�É�,0,10.8,90.9,0,0,16,�k,1.1,5,,
2019/7/7,22:00:00,13,���k��,1.3,10.4,91.6,0,0,13,���k��,1.6,59,,
2019/7/7,23:00:00,16,�k,1.1,12.3,94.7,0,0,12,��,2.4,30,,
2019/7/7,0:00:00,12,��,1.6,13.2,95.8,0,0,12,��,2.3,0,,
2019/7/8,1:00:00,2,�k��,1.9,13.1,96.1,0,0,2,�k��,2.5,0,,
2019/7/8,2:00:00,3,���k��,0.6,13.6,96.4,0,0,2,�k��,2.5,0,,
2019/7/8,3:00:00,3,���k��,1.2,13.8,96.6,0,0,3,���k��,2.2,17,,
2019/7/8,4:00:00,4,��,1.6,14,96.6,0,0,4,��,2.4,55,,
2019/7/8,5:00:00,4,��,0.6,14.4,96.5,0,0.02,4,��,2.4,45,,
2019/7/8,6:00:00,2,�k��,1.1,15,95.9,0,0.07,2,�k��,2.1,40,,
2019/7/8,7:00:00,4,��,2.3,15.2,87.8,0,0.14,4,��,3.3,52,,
2019/7/8,8:00:00,4,��,2.6,16,83.6,0,0.22,5,���쓌,3.5,22,,
2019/7/8,9:00:00,5,���쓌,1.8,16.6,78.5,0,0.34,5,���쓌,3.2,58,,
2019/7/8,10:00:00,7,��쓌,2.5,17.8,68.9,0,0.6,6,�쓌,5.1,39,,
2019/7/8,11:00:00,6,�쓌,3,17.4,70.5,0,0.53,5,���쓌,5.3,25,,
2019/7/8,12:00:00,6,�쓌,3.1,18.5,62.8,0,0.79,6,�쓌,4.7,8,,
2019/7/8,13:00:00,6,�쓌,2.5,17.7,61.1,0,0.82,6,�쓌,4.5,41,,
2019/7/8,14:00:00,6,�쓌,2.9,19.5,60.9,0,0.82,6,�쓌,5,57,,
2019/7/8,15:00:00,7,��쓌,3,18.5,59.5,0,0.81,6,�쓌,5.6,38,,
2019/7/8,16:00:00,7,��쓌,2.6,18.4,56.7,0,0.63,6,�쓌,4.8,4,,
2019/7/8,17:00:00,6,�쓌,2,17.8,57,0,0.45,6,�쓌,4.4,6,,
2019/7/8,18:00:00,6,�쓌,1.7,16.2,60,0,0.25,7,��쓌,3.8,4,,
2019/7/8,19:00:00,5,���쓌,0.3,13.9,72.1,0,0.07,6,�쓌,3.1,10,,
2019/7/8,20:00:00,8,��,0.5,10,81,0,0,9,��쐼,0.9,59,,
2019/7/8,21:00:00,12,��,0.4,12.4,89.7,0,0,13,���k��,1,23,,
2019/7/8,22:00:00,13,���k��,0.5,12.3,92,0,0,12,��,1.8,10,,
2019/7/8,23:00:00,12,��,0.9,12.7,93.4,0,0,12,��,1.6,29,,
2019/7/8,0:00:00,16,�É�,0.1,11.2,93.2,0,0,1,�k�k��,0.9,49,,
2019/7/9,1:00:00,1,�k�k��,0.7,11.2,93.9,0,0,2,�k��,1.3,51,,
2019/7/9,2:00:00,13,���k��,1.6,11.2,93.4,0,0,15,�k�k��,2.2,59,,
2019/7/9,3:00:00,13,���k��,1.2,13,94.5,0,0,14,�k��,2.3,0,,
2019/7/9,4:00:00,14,�k��,0.7,13.5,95.2,0,0,9,��쐼,2,20,,
2019/7/9,5:00:00,16,�É�,0.2,14.1,95.8,0,0.03,14,�k��,1.2,26,,
2019/7/9,6:00:00,16,�k,0.5,15.2,95,0,0.09,16,�k,1.4,52,,
2019/7/9,7:00:00,2,�k��,0.5,15.9,81.4,0,0.18,2,�k��,1.7,24,,
2019/7/9,8:00:00,5,���쓌,1.5,16.2,75.7,0,0.23,5,���쓌,2.9,44,,
2019/7/9,9:00:00,6,�쓌,1.9,17.1,69.7,0,0.35,6,�쓌,2.8,59,,
2019/7/9,10:00:00,6,�쓌,1.9,18.5,71.3,0,0.5,5,���쓌,3.7,56,,
2019/7/9,11:00:00,5,���쓌,3,18.5,61.4,0,0.88,5,���쓌,4.9,53,,
2019/7/9,12:00:00,6,�쓌,3.6,18.7,60.9,0,1.07,6,�쓌,5.6,48,,
2019/7/9,13:00:00,6,�쓌,2.5,18.8,62.3,0,1.04,7,��쓌,4.8,15,,
2019/7/9,14:00:00,6,�쓌,2.8,18.7,61.2,0,0.94,6,�쓌,4.8,57,,
2019/7/9,15:00:00,6,�쓌,2.4,18.4,66.1,0,0.77,6,�쓌,5.8,33,,
2019/7/9,16:00:00,8,��,2.3,17.7,63.5,0,0.63,6,�쓌,3.7,37,,
2019/7/9,17:00:00,7,��쓌,1.9,17.1,63.3,0,0.42,7,��쓌,3.6,0,,
2019/7/9,18:00:00,6,�쓌,1.5,15.9,67,0,0.21,7,��쓌,3.4,14,,
2019/7/9,19:00:00,6,�쓌,0.9,14.1,75.8,0,0.05,1,�k�k��,2.5,15,,
2019/7/9,20:00:00,16,�k,0.3,11.3,84.7,0,0,6,�쓌,1.3,2,,
2019/7/9,21:00:00,16,�É�,0.2,13.9,89.9,0,0,12,��,1.2,33,,
2019/7/9,22:00:00,13,���k��,1,14.1,90.5,0,0,14,�k��,1.6,59,,
2019/7/9,23:00:00,16,�É�,0.1,13.8,92.6,0,0,14,�k��,1.4,2,,
2019/7/9,0:00:00,16,�É�,0.1,14.1,92.9,0,0,2,�k��,1,20,,
2019/7/10,1:00:00,16,�É�,0,14.1,90,0,0,14,�k��,2.4,34,,
2019/7/10,2:00:00,14,�k��,0.7,13.9,91.5,0,0,14,�k��,1.2,59,,
2019/7/10,3:00:00,4,��,0.5,13.1,90.4,0,0,14,�k��,2,3,,
2019/7/10,4:00:00,3,���k��,1.1,13.6,91.3,0,0,2,�k��,1.9,19,,
2019/7/10,5:00:00,3,���k��,3.5,13.4,91.3,0,0.03,2,�k��,6,54,,
2019/7/10,6:00:00,3,���k��,3.6,13.3,93.3,0,0.07,3,���k��,6.2,9,,
2019/7/10,7:00:00,3,���k��,2.2,14.3,91.7,0,0.12,3,���k��,5.1,15,,
2019/7/10,8:00:00,3,���k��,1.7,14.9,81.1,0,0.22,3,���k��,2.9,7,,
2019/7/10,9:00:00,5,���쓌,3,15.1,81.4,0,0.22,5,���쓌,4.9,37,,
2019/7/10,10:00:00,5,���쓌,2.5,16.3,76.9,0,0.39,4,��,5.2,26,,
2019/7/10,11:00:00,6,�쓌,3,15.6,72.9,0,0.54,6,�쓌,5.3,58,,
2019/7/10,12:00:00,6,�쓌,3.4,15,78.5,0,0.43,6,�쓌,5.6,8,,
2019/7/10,13:00:00,6,�쓌,2.9,15.3,78.6,0,0.42,6,�쓌,5.3,25,,
2019/7/10,14:00:00,8,��,2.5,15.2,77.6,0,0.37,6,�쓌,4.9,7,,
2019/7/10,15:00:00,6,�쓌,2.5,14.4,78.2,0,0.29,6,�쓌,4.4,33,,
2019/7/10,16:00:00,7,��쓌,2.3,14.1,78.7,0,0.27,7,��쓌,4.5,33,,
2019/7/10,17:00:00,5,���쓌,1.9,13.7,82,0,0.13,8,��,4.2,6,,
2019/7/10,18:00:00,6,�쓌,1.6,12.8,86.5,0,0.06,6,�쓌,3.2,33,,
2019/7/10,19:00:00,6,�쓌,0.9,12.7,88.5,0,0.02,6,�쓌,3,19,,
2019/7/10,20:00:00,5,���쓌,2.1,12.6,89,0,0,5,���쓌,3.4,39,,
2019/7/10,21:00:00,5,���쓌,1.4,12.6,89.1,0,0,5,���쓌,3,5,,
2019/7/10,22:00:00,6,�쓌,1.6,12.5,87.7,0,0,5,���쓌,2.8,59,,
2019/7/10,23:00:00,6,�쓌,1.8,12.4,87.3,0,0,6,�쓌,3.3,48,,
2019/7/10,0:00:00,6,�쓌,1.6,12.2,87.9,0,0,7,��쓌,3.5,17,,
2019/7/11,1:00:00,7,��쓌,1.1,12.1,87.9,0,0,7,��쓌,2.5,41,,
2019/7/11,2:00:00,7,��쓌,0.4,12.1,90,0,0,9,��쐼,2.1,11,,
2019/7/11,3:00:00,7,��쓌,1.2,12.2,90,0,0,7,��쓌,2.5,35,,
2019/7/11,4:00:00,6,�쓌,2.3,12,90.4,0,0,6,�쓌,3.6,56,,
2019/7/11,5:00:00,6,�쓌,1.8,12.2,92.1,0,0.01,5,���쓌,3.7,25,,
2019/7/11,6:00:00,6,�쓌,1.4,12.6,90.8,0,0.04,6,�쓌,3.8,17,,
2019/7/11,7:00:00,6,�쓌,1.9,13.2,87.4,0,0.1,6,�쓌,2.9,52,,
2019/7/11,8:00:00,7,��쓌,2.3,13.8,84.5,0,0.17,7,��쓌,3.7,58,,
2019/7/11,9:00:00,7,��쓌,2.5,15.5,74.5,0,0.39,7,��쓌,4.8,51,,
2019/7/11,10:00:00,7,��쓌,2.7,17.5,64.6,0,0.71,6,�쓌,4.7,52,,
2019/7/11,11:00:00,7,��쓌,2.5,16.9,57.3,0,0.96,6,�쓌,5.1,14,,
2019/7/11,12:00:00,6,�쓌,2.5,16.3,63.2,0,0.7,6,�쓌,5,22,,
2019/7/11,13:00:00,6,�쓌,2.8,16.7,66.5,0,0.66,6,�쓌,5.2,9,,
2019/7/11,14:00:00,6,�쓌,3.1,15.8,68,0,0.59,6,�쓌,5,37,,
2019/7/11,15:00:00,7,��쓌,2.5,15.6,70.5,0,0.45,5,���쓌,4.6,49,,
2019/7/11,16:00:00,7,��쓌,3,16,73.6,0,0.39,6,�쓌,5.7,50,,
2019/7/11,17:00:00,6,�쓌,1.9,15.4,73.1,0,0.31,8,��,5.4,16,,
2019/7/11,18:00:00,4,��,2.6,14.5,79.6,0,0.11,4,��,3.5,53,,
2019/7/11,19:00:00,3,���k��,2,14,85.2,0,0.03,4,��,3.6,0,,
2019/7/11,20:00:00,4,��,1.4,13.9,88.3,0,0,4,��,2.5,43,,
2019/7/11,21:00:00,16,�k,1.2,13.8,90.1,0,0,1,�k�k��,2.3,44,,
2019/7/11,22:00:00,13,���k��,1.1,13.7,90.7,0,0,12,��,2.6,40,,
2019/7/11,23:00:00,13,���k��,0.7,13.7,91.3,0,0,11,���쐼,1.7,4,,
2019/7/11,0:00:00,12,��,0.6,13.3,92.6,0,0,14,�k��,1.6,11,,
2019/7/12,1:00:00,16,�É�,0.1,13.3,93.4,0,0,12,��,1.7,5,,
2019/7/12,2:00:00,2,�k��,0.6,12.9,93.6,0,0,1,�k�k��,2.1,38,,
2019/7/12,3:00:00,1,�k�k��,2.3,13.6,94.1,0,0,1,�k�k��,2.9,52,,
2019/7/12,4:00:00,7,��쓌,1.6,14.7,94.9,0,0,6,�쓌,4.9,25,,
2019/7/12,5:00:00,7,��쓌,1.4,14.6,92,0,0.02,7,��쓌,3.3,37,,
2019/7/12,6:00:00,10,�쐼,1.3,15.1,90.7,0,0.1,10,�쐼,2.6,24,,
2019/7/12,7:00:00,8,��,1.8,16.5,82.4,0,0.2,8,��,3.9,56,,
2019/7/12,8:00:00,7,��쓌,2.5,16.3,75.8,0,0.25,7,��쓌,4.4,56,,
2019/7/12,9:00:00,7,��쓌,1.6,16,80,0,0.18,8,��,3.7,14,,
2019/7/12,10:00:00,7,��쓌,2.6,17.2,73.3,0,0.38,8,��,5.6,57,,
2019/7/12,11:00:00,7,��쓌,1.6,16.1,73.9,0,0.36,6,�쓌,5.2,6,,
2019/7/12,12:00:00,7,��쓌,2.3,16.9,73.2,0,0.4,5,���쓌,5,24,,
2019/7/12,13:00:00,7,��쓌,2,16.8,82.2,0,0.2,7,��쓌,4.1,21,,
2019/7/12,14:00:00,6,�쓌,2.7,16.5,78.2,0,0.31,7,��쓌,5.4,48,,
2019/7/12,15:00:00,6,�쓌,2.8,16.4,82.9,0,0.21,6,�쓌,4.3,52,,
2019/7/12,16:00:00,6,�쓌,2.4,15.9,83.4,0,0.21,7,��쓌,5.8,0,,
2019/7/12,17:00:00,7,��쓌,1.3,15.6,86.7,0,0.07,7,��쓌,3.9,4,,
2019/7/12,18:00:00,6,�쓌,2.3,15.5,87.2,0,0.07,6,�쓌,3.6,48,,
2019/7/12,19:00:00,2,�k��,0.4,15.4,89.4,0,0.03,6,�쓌,3.3,8,,
2019/7/12,20:00:00,2,�k��,0.6,15.1,90.7,0,0,3,���k��,1.7,15,,
2019/7/12,21:00:00,6,�쓌,1.5,15.2,92.4,0,0,6,�쓌,2.8,51,,
2019/7/12,22:00:00,2,�k��,0.5,15.2,93.4,0,0,3,���k��,1.6,44,,
2019/7/12,23:00:00,7,��쓌,1.1,15.4,94.1,0.5,0,7,��쓌,3.1,47,,
2019/7/12,0:00:00,8,��,1.3,15.3,94.7,1,0,6,�쓌,3.7,14,,
2019/7/13,1:00:00,6,�쓌,1.2,14.8,94.9,0.5,0,10,�쐼,4.3,38,,
2019/7/13,2:00:00,6,�쓌,1.3,15,95.1,0,0,5,���쓌,3.2,54,,
2019/7/13,3:00:00,6,�쓌,2.7,15.1,95.6,2,0,5,���쓌,4.7,56,,
2019/7/13,4:00:00,5,���쓌,3.3,15.3,96.3,1,0,5,���쓌,5.5,58,,
2019/7/13,5:00:00,4,��,3.8,15.3,96.7,2,0.01,5,���쓌,5.6,49,,
2019/7/13,6:00:00,4,��,2.8,15.2,96.8,2,0.02,5,���쓌,5.6,1,,
2019/7/13,7:00:00,15,�k�k��,0.6,15.4,96.9,3,0.04,3,���k��,3.9,6,,
2019/7/13,8:00:00,1,�k�k��,1.5,15.7,96.9,8,0.04,1,�k�k��,2.3,59,,
2019/7/13,9:00:00,2,�k��,2.1,15.9,96.7,4.5,0.05,3,���k��,3,24,,
2019/7/13,10:00:00,6,�쓌,1.8,16.4,96.7,3.5,0.08,6,�쓌,3.1,53,,
2019/7/13,11:00:00,6,�쓌,2.2,16.5,95.9,2.5,0.13,6,�쓌,4.6,19,,
2019/7/13,12:00:00,6,�쓌,2.4,16.5,94.9,1,0.16,6,�쓌,4.5,39,,
2019/7/13,13:00:00,6,�쓌,3,16.5,93.7,0.5,0.21,7,��쓌,4.7,39,,
2019/7/13,14:00:00,7,��쓌,3,16.5,93.8,0,0.2,6,�쓌,5.8,58,,
2019/7/13,15:00:00,7,��쓌,2.1,16.2,93.1,0,0.17,7,��쓌,6.3,33,,
2019/7/13,16:00:00,8,��,1.9,16.5,92.9,0,0.15,7,��쓌,4.8,38,,
2019/7/13,17:00:00,8,��,1.4,16.2,93.6,0.5,0.06,8,��,4.1,1,,
2019/7/13,18:00:00,7,��쓌,0.9,16.2,94.4,1,0.04,8,��,2.8,1,,
2019/7/13,19:00:00,7,��쓌,0.7,16,94.7,0,0.01,7,��쓌,2.5,2,,
2019/7/13,20:00:00,3,���k��,0.7,15.9,95.3,0.5,0,4,��,2.2,14,,
2019/7/13,21:00:00,3,���k��,1.7,15.7,95.4,0.5,0,3,���k��,2.7,28,,
2019/7/13,22:00:00,2,�k��,2.5,15.6,95.8,1,0,2,�k��,3.4,58,,
2019/7/13,23:00:00,3,���k��,1.5,15.5,96.1,0.5,0,2,�k��,3.5,16,,
2019/7/13,0:00:00,2,�k��,1.9,15.6,96.4,0.5,0,2,�k��,2.8,50,,
2019/7/14,1:00:00,3,���k��,1.9,15.4,96.4,0.5,0,3,���k��,3.4,28,,
2019/7/14,2:00:00,3,���k��,1.3,15.5,96.6,0.5,0,3,���k��,2.5,3,,
2019/7/14,3:00:00,16,�É�,0.1,15.4,96.7,0.5,0,5,���쓌,2,13,,
2019/7/14,4:00:00,3,���k��,3.2,14.8,96.4,0,0,3,���k��,4.7,48,,
2019/7/14,5:00:00,2,�k��,2.5,14.9,96.5,0.5,0.01,2,�k��,4.8,2,,
2019/7/14,6:00:00,2,�k��,1.9,15,96.9,0.5,0.02,2,�k��,3.4,2,,
2019/7/14,7:00:00,2,�k��,2.4,15.1,96.8,0.5,0.05,1,�k�k��,4.5,36,,
2019/7/14,8:00:00,2,�k��,2.2,16.1,96.9,0.5,0.14,1,�k�k��,3.4,8,,
2019/7/14,9:00:00,1,�k�k��,1.8,16.1,95.7,1,0.14,1,�k�k��,3.7,18,,
2019/7/14,10:00:00,2,�k��,1.8,16.3,93.8,1.5,0.17,1,�k�k��,3,16,,
2019/7/14,11:00:00,3,���k��,1.6,15.7,90.6,2.5,0.18,2,�k��,4.1,49,,
2019/7/14,12:00:00,3,���k��,3.4,15.5,92.3,2,0.15,3,���k��,5.9,55,,
2019/7/14,13:00:00,3,���k��,4.4,15.5,94.5,1,0.14,3,���k��,7.4,52,,
2019/7/14,14:00:00,3,���k��,4.5,16.7,95.6,0,0.29,3,���k��,8,5,,
2019/7/14,15:00:00,3,���k��,4,16.2,93.3,0.5,0.22,2,�k��,7.5,42,,
2019/7/14,16:00:00,3,���k��,3.7,16.2,92.8,0,0.15,3,���k��,6.3,3,,
2019/7/14,17:00:00,3,���k��,3.8,15.6,93.7,0,0.05,3,���k��,6,52,,
2019/7/14,18:00:00,3,���k��,3.3,15.5,94.8,0,0.02,2,�k��,6.7,22,,
2019/7/14,19:00:00,3,���k��,3.1,15.3,95.1,0,0.01,3,���k��,5.9,1,,
2019/7/14,20:00:00,2,�k��,3.5,14.8,95,0,0,3,���k��,5.9,51,,
2019/7/14,21:00:00,2,�k��,3.1,14.8,95.5,0,0,2,�k��,6,35,,
2019/7/14,22:00:00,2,�k��,3.6,15.1,95.8,0,0,2,�k��,6.2,51,,
2019/7/14,23:00:00,3,���k��,4.5,15.3,95.7,0,0,3,���k��,6.9,58,,
2019/7/14,0:00:00,3,���k��,3.9,15,95.5,0,0,3,���k��,7.5,3,,
2019/7/15,1:00:00,3,���k��,4.7,14.8,95.8,0,0,3,���k��,7.4,56,,
2019/7/15,2:00:00,2,�k��,3.4,14.8,95.9,0,0,2,�k��,7.5,1,,
2019/7/15,3:00:00,2,�k��,3.1,14.8,95.8,0,0,3,���k��,6.8,23,,
2019/7/15,4:00:00,3,���k��,4.7,14.3,94.9,0,0,3,���k��,7.4,47,,
2019/7/15,5:00:00,2,�k��,3,14.4,95.8,0,0.01,2,�k��,7.3,5,,
2019/7/15,6:00:00,2,�k��,3.9,14.8,93.1,0,0.04,2,�k��,7.2,45,,
2019/7/15,7:00:00,3,���k��,4.1,14.8,87.3,0,0.11,2,�k��,7.9,11,,
2019/7/15,8:00:00,2,�k��,4.4,15.9,85,0,0.21,2,�k��,7.7,32,,
2019/7/15,9:00:00,3,���k��,4.9,15.6,81.5,0,0.28,2,�k��,8.2,0,,
2019/7/15,10:00:00,3,���k��,4,17.8,72,0,0.56,2,�k��,8,32,,
2019/7/15,11:00:00,3,���k��,5.3,19.5,70.3,0,0.95,3,���k��,8.8,15,,
2019/7/15,12:00:00,4,��,4.6,18.3,69.6,0,0.71,3,���k��,7.4,1,,
2019/7/15,13:00:00,3,���k��,5,18.6,69.2,0,0.83,3,���k��,9.4,42,,
2019/7/15,14:00:00,4,��,4.1,18.6,69.6,0,0.91,4,��,8.3,48,,
2019/7/15,15:00:00,4,��,4.7,17.9,70.6,0,0.76,4,��,7.4,57,,
2019/7/15,16:00:00,4,��,5.1,18,72.7,0,0.61,3,���k��,7.6,53,,
2019/7/15,17:00:00,4,��,2.7,16.1,76.5,0,0.34,4,��,6.8,4,,
2019/7/15,18:00:00,3,���k��,1.4,14.9,78.6,0,0.16,5,���쓌,4.1,3,,
2019/7/15,19:00:00,3,���k��,1.1,12.8,85.1,0,0.03,4,��,2.6,19,,
2019/7/15,20:00:00,4,��,1.1,12.9,89,0,0,4,��,2.9,48,,
2019/7/15,21:00:00,4,��,0.8,12.7,91.4,0,0,2,�k��,2.2,38,,
2019/7/15,22:00:00,4,��,1.4,12.7,92.7,0,0,4,��,2.1,53,,
2019/7/15,23:00:00,1,�k�k��,1.1,12.7,93.1,0,0,1,�k�k��,1.8,53,,
2019/7/15,0:00:00,12.9,��,94,0,0,,,,,,,,
2019/7/16,1:00:00,2,�k��,1.7,13,93.4,0,0,3,���k��,3.2,35,,
2019/7/16,2:00:00,15,�k�k��,0.5,13.1,94.1,0,0,2,�k��,2.2,21,,
2019/7/16,3:00:00,14,�k��,0.7,12.9,94.3,0,0,15,�k�k��,1.5,55,,
2019/7/16,4:00:00,14,�k��,1.1,12.7,94.1,0,0,14,�k��,1.6,4,,
2019/7/16,5:00:00,13,���k��,1,13.2,94.2,0,0.02,14,�k��,1.7,0,,
2019/7/16,6:00:00,14,�k��,0.8,14,93.2,0,0.07,13,���k��,2.1,25,,
2019/7/16,7:00:00,1,�k�k��,0.9,15.1,84.9,0,0.15,1,�k�k��,2,30,,
2019/7/16,8:00:00,16,�É�,0.2,16.2,81,0,0.23,1,�k�k��,2.5,4,,
2019/7/16,9:00:00,5,���쓌,2.4,16.9,70.4,0,0.35,5,���쓌,3.3,51,,
2019/7/16,10:00:00,5,���쓌,2.8,17.5,70.3,0,0.47,5,���쓌,3.9,44,,
2019/7/16,11:00:00,4,��,3.2,17.1,68.8,0,0.53,5,���쓌,4.4,27,,
2019/7/16,12:00:00,4,��,2.8,18,69.5,0,0.6,4,��,4.3,37,,
2019/7/16,13:00:00,4,��,2.5,16.7,71.6,0,0.51,4,��,4.1,16,,
2019/7/16,14:00:00,4,��,2.6,16.5,76.1,0,0.35,4,��,3.8,45,,
2019/7/16,15:00:00,3,���k��,2.2,16.4,79.2,0,0.3,3,���k��,4.2,49,,
2019/7/16,16:00:00,3,���k��,2,16.4,82.7,0,0.23,3,���k��,3.8,40,,
2019/7/16,17:00:00,4,��,1.3,15.7,84.5,0,0.1,3,���k��,3.1,4,,
2019/7/16,18:00:00,3,���k��,0.8,15.1,89.1,0,0.04,3,���k��,2.4,15,,
2019/7/16,19:00:00,2,�k��,1.4,15,91.3,0,0.01,3,���k��,2.1,57,,
2019/7/16,20:00:00,1,�k�k��,1.2,15.2,93.4,0,0,1,�k�k��,1.9,54,,
2019/7/16,21:00:00,1,�k�k��,0.8,15.2,94.4,0,0,1,�k�k��,1.9,39,,
2019/7/16,22:00:00,16,�k,0.3,15.3,95.4,0.5,0,16,�k,1.4,0,,
2019/7/16,23:00:00,16,�É�,0.1,15.4,95.8,0,0,15,�k�k��,0.9,7,,
2019/7/16,0:00:00,16,�k,0.4,15.5,96.2,0,0,15,�k�k��,1,27,,
2019/7/17,1:00:00,1,�k�k��,0.7,15.5,96.3,0.5,0,16,�k,1.6,42,,
2019/7/17,2:00:00,16,�k,0.5,15.7,96.5,0,0,1,�k�k��,1.1,58,,
2019/7/17,3:00:00,16,�É�,0,15.8,96.5,0.5,0,1,�k�k��,1.6,34,,
2019/7/17,4:00:00,16,�k,0.8,15.8,96.6,0,0,16,�k,1.6,53,,
2019/7/17,5:00:00,16,�k,0.6,16.1,96.7,0,0.01,1,�k�k��,2.2,56,,
2019/7/17,6:00:00,1,�k�k��,1.7,16.3,96.5,0.5,0.04,1,�k�k��,2.6,50,,
2019/7/17,7:00:00,16,�k,1.3,17.1,96.3,0,0.09,16,�k,2.9,11,,
2019/7/17,8:00:00,3,���k��,1.3,17.5,92.1,0,0.14,4,��,2.2,59,,
2019/7/17,9:00:00,4,��,1.7,17.8,86.4,0,0.21,4,��,2.5,8,,